When you browse on this site, cookies collect data to enhance your experience and personalize the content and advertising you see.
Visit our Privacy Policy to learn more. By continuing to use the site, you agree to this use of cookies and data.
  • In Romania
  • List of Countries
  • For 7 days
  • Water Temperature
  • Weather Map
  • Weather Widgets
  • user-avatar
    Login

    Hourly Weather Kerema

    Today, 4 June, Thursday

    Time Temperature Precipitation Wind Pressure Humidity
    00:00 +25°C° 9 mm 3 mps 757 mmHg 97%
    01:00 +25°C° 9 mm 3 mps 757 mmHg 98%
    02:00 +25°C° 0.6 mm 3 mps 756 mmHg 97%
    03:00 +25°C° 0.6 mm 3 mps 756 mmHg 97%
    04:00 +25°C° 0 mm 2 mps 756 mmHg 97%
    05:00 +25°C° 0.1 mm 2 mps 756 mmHg 97%
    06:00 +25°C° 0.1 mm 2 mps 757 mmHg 96%
    07:00 +25°C° 0.1 mm 2 mps 757 mmHg 95%
    08:00 +27°C° 0 mm 2 mps 757 mmHg 90%
    09:00 +29°C° 0 mm 2 mps 757 mmHg 84%
    10:00 +30°C° 0 mm 2 mps 757 mmHg 79%
    11:00 +30°C° 0.5 mm 2 mps 756 mmHg 80%
    12:00 +30°C° 0.5 mm 2 mps 756 mmHg 82%
    13:00 +30°C° 0.5 mm 3 mps 755 mmHg 83%
    14:00 +30°C° 0.9 mm 2 mps 755 mmHg 86%
    15:00 +29°C° 0.9 mm 2 mps 755 mmHg 88%
    16:00 +29°C° 0.9 mm 2 mps 755 mmHg 90%
    17:00 +28°C° 0.4 mm 2 mps 755 mmHg 92%
    18:00 +28°C° 0.4 mm 2 mps 756 mmHg 94%
    19:00 +27°C° 0.4 mm 2 mps 756 mmHg 96%
    20:00 +27°C° 1.1 mm 2 mps 756 mmHg 96%
    21:00 +27°C° 1.1 mm 2 mps 757 mmHg 96%
    22:00 +26°C° 1.1 mm 2 mps 757 mmHg 96%
    23:00 +26°C° 0.8 mm 2 mps 756 mmHg 96%

    Tomorrow, 5 June, Friday

    Time Temperature Precipitation Wind Pressure Humidity
    00:00 +26°C° 0.8 mm 2 mps 756 mmHg 96%
    01:00 +26°C° 0.8 mm 1 mps 756 mmHg 96%
    02:00 +26°C° 0.6 mm 1 mps 755 mmHg 96%
    03:00 +26°C° 0.6 mm 1 mps 755 mmHg 96%
    04:00 +26°C° 0.6 mm 1 mps 755 mmHg 95%
    05:00 +26°C° 0 mm 1 mps 755 mmHg 95%
    06:00 +26°C° 0 mm 1 mps 755 mmHg 95%
    07:00 +26°C° 0 mm 1 mps 756 mmHg 94%
    08:00 +27°C° 0 mm 1 mps 756 mmHg 88%
    09:00 +29°C° 0 mm 1 mps 756 mmHg 82%
    10:00 +31°C° 0 mm 1 mps 756 mmHg 76%
    11:00 +31°C° 0 mm 2 mps 755 mmHg 74%
    12:00 +32°C° 0 mm 2 mps 755 mmHg 71%
    13:00 +34°C° 0 mm 2 mps 754 mmHg 69%
    14:00 +32°C° 0.5 mm 2 mps 754 mmHg 74%
    15:00 +31°C° 0.5 mm 2 mps 754 mmHg 80%
    16:00 +30°C° 0.5 mm 2 mps 753 mmHg 85%
    17:00 +29°C° 1.1 mm 2 mps 754 mmHg 89%
    18:00 +28°C° 1.1 mm 1 mps 754 mmHg 93%
    19:00 +27°C° 1.1 mm 1 mps 755 mmHg 97%
    20:00 +27°C° 1 mm 1 mps 755 mmHg 97%
    21:00 +27°C° 1 mm 1 mps 756 mmHg 97%
    22:00 +27°C° 1 mm 1 mps 756 mmHg 97%
    23:00 +27°C° 0.2 mm 1 mps 756 mmHg 97%

    Day after tomorrow, 6 June, Saturday

    Time Temperature Precipitation Wind Pressure Humidity
    00:00 +27°C° 0.2 mm 1 mps 755 mmHg 97%
    01:00 +26°C° 0.2 mm 1 mps 755 mmHg 97%
    02:00 +26°C° 0.1 mm 1 mps 755 mmHg 96%
    03:00 +26°C° 0.1 mm 1 mps 754 mmHg 95%
    04:00 +26°C° 0.1 mm 1 mps 754 mmHg 95%
    05:00 +26°C° 0.1 mm 1 mps 754 mmHg 94%
    06:00 +26°C° 0.1 mm 1 mps 755 mmHg 94%
    07:00 +26°C° 0.1 mm 1 mps 755 mmHg 93%
    08:00 +28°C° 0 mm 1 mps 755 mmHg 86%
    09:00 +30°C° 0 mm 1 mps 755 mmHg 79%
    10:00 +32°C° 0 mm 1 mps 755 mmHg 72%
    11:00 +32°C° 0 mm 1 mps 754 mmHg 72%
    12:00 +32°C° 0 mm 2 mps 753 mmHg 72%
    13:00 +33°C° 0 mm 3 mps 753 mmHg 71%
    14:00 +31°C° 0.3 mm 3 mps 753 mmHg 76%
    15:00 +30°C° 0.3 mm 3 mps 752 mmHg 81%
    16:00 +30°C° 0.3 mm 3 mps 752 mmHg 85%
    17:00 +29°C° 0.6 mm 3 mps 753 mmHg 89%
    18:00 +28°C° 0.6 mm 3 mps 753 mmHg 92%
    19:00 +28°C° 0.6 mm 3 mps 754 mmHg 95%
    20:00 +27°C° 1.9 mm 4 mps 754 mmHg 96%
    21:00 +27°C° 1.9 mm 4 mps 755 mmHg 96%
    22:00 +27°C° 1.9 mm 4 mps 755 mmHg 96%
    23:00 +27°C° 1.4 mm 4 mps 755 mmHg 96%

    7 June, Sunday

    Time Temperature Precipitation Wind Pressure Humidity
    00:00 +27°C° 1.4 mm 4 mps 755 mmHg 97%
    01:00 +27°C° 1.4 mm 3 mps 754 mmHg 97%
    02:00 +27°C° 2.3 mm 3 mps 754 mmHg 96%
    03:00 +27°C° 2.3 mm 2 mps 754 mmHg 96%
    04:00 +26°C° 2.3 mm 2 mps 754 mmHg 95%
    05:00 +26°C° 0.7 mm 2 mps 754 mmHg 96%
    06:00 +26°C° 0.7 mm 1 mps 755 mmHg 96%
    07:00 +26°C° 0.7 mm 1 mps 755 mmHg 96%
    08:00 +27°C° 0 mm 1 mps 755 mmHg 92%
    09:00 +28°C° 0 mm 1 mps 755 mmHg 88%
    10:00 +28°C° 0 mm 0 mps 755 mmHg 85%
    11:00 +30°C° 0.1 mm 1 mps 755 mmHg 81%
    12:00 +31°C° 0.1 mm 1 mps 754 mmHg 77%
    13:00 +32°C° 0.1 mm 2 mps 753 mmHg 73%
    14:00 +31°C° 0.1 mm 2 mps 753 mmHg 76%
    15:00 +31°C° 0.1 mm 2 mps 753 mmHg 80%
    16:00 +30°C° 0.1 mm 2 mps 752 mmHg 84%
    17:00 +29°C° 0.1 mm 2 mps 753 mmHg 88%
    18:00 +28°C° 0.1 mm 2 mps 753 mmHg 92%
    19:00 +27°C° 0.1 mm 2 mps 754 mmHg 96%
    20:00 +27°C° 0.8 mm 3 mps 754 mmHg 96%
    21:00 +27°C° 0.8 mm 4 mps 755 mmHg 96%
    22:00 +27°C° 0.8 mm 4 mps 755 mmHg 96%
    23:00 +27°C° 0.6 mm 4 mps 755 mmHg 96%

    8 June, Monday

    Time Temperature Precipitation Wind Pressure Humidity
    00:00 +27°C° 0.6 mm 4 mps 755 mmHg 96%
    01:00 +27°C° 0.6 mm 4 mps 754 mmHg 96%
    02:00 +27°C° 1 mm 3 mps 754 mmHg 96%
    03:00 +27°C° 1 mm 3 mps 754 mmHg 97%
    04:00 +26°C° 1 mm 2 mps 754 mmHg 97%
    05:00 +26°C° 0.2 mm 2 mps 755 mmHg 96%
    06:00 +26°C° 0.2 mm 2 mps 755 mmHg 96%
    07:00 +26°C° 0.2 mm 2 mps 755 mmHg 95%
    08:00 +27°C° 0 mm 2 mps 755 mmHg 90%
    09:00 +29°C° 0 mm 2 mps 755 mmHg 84%
    10:00 +30°C° 0 mm 1 mps 755 mmHg 79%
    11:00 +31°C° 0 mm 2 mps 755 mmHg 75%
    12:00 +31°C° 0 mm 2 mps 754 mmHg 72%
    13:00 +32°C° 0 mm 2 mps 754 mmHg 69%
    14:00 +31°C° 0.1 mm 2 mps 753 mmHg 73%
    15:00 +31°C° 0.1 mm 3 mps 753 mmHg 76%
    16:00 +30°C° 0.1 mm 3 mps 753 mmHg 80%
    17:00 +29°C° 0.4 mm 3 mps 754 mmHg 85%
    18:00 +28°C° 0.4 mm 3 mps 754 mmHg 90%
    19:00 +27°C° 0.4 mm 3 mps 755 mmHg 96%
    20:00 +27°C° 0.8 mm 3 mps 755 mmHg 96%
    21:00 +27°C° 0.8 mm 4 mps 756 mmHg 96%
    22:00 +27°C° 0.8 mm 4 mps 756 mmHg 96%
    23:00 +27°C° 1.4 mm 4 mps 756 mmHg 96%

    9 June, Tuesday

    Time Temperature Precipitation Wind Pressure Humidity
    00:00 +27°C° 1.4 mm 4 mps 755 mmHg 95%
    01:00 +27°C° 1.4 mm 4 mps 755 mmHg 95%
    02:00 +26°C° 0.9 mm 4 mps 755 mmHg 95%
    03:00 +26°C° 0.9 mm 3 mps 755 mmHg 95%
    04:00 +26°C° 0.9 mm 3 mps 754 mmHg 94%
    05:00 +26°C° 0.1 mm 3 mps 755 mmHg 94%
    06:00 +26°C° 0.1 mm 2 mps 755 mmHg 94%
    07:00 +26°C° 0.1 mm 2 mps 756 mmHg 94%
    08:00 +28°C° 0 mm 1 mps 756 mmHg 88%
    09:00 +29°C° 0 mm 1 mps 756 mmHg 82%
    10:00 +31°C° 0 mm 1 mps 756 mmHg 77%
    11:00 +32°C° 0.2 mm 2 mps 755 mmHg 75%
    12:00 +32°C° 0.2 mm 2 mps 755 mmHg 73%
    13:00 +34°C° 0.2 mm 3 mps 754 mmHg 72%
    14:00 +33°C° 0.5 mm 3 mps 754 mmHg 77%
    15:00 +31°C° 0.5 mm 3 mps 754 mmHg 82%
    16:00 +30°C° 0.5 mm 3 mps 753 mmHg 86%
    17:00 +29°C° 0.2 mm 3 mps 754 mmHg 89%
    18:00 +28°C° 0.2 mm 3 mps 754 mmHg 93%
    19:00 +28°C° 0.2 mm 3 mps 755 mmHg 96%
    20:00 +27°C° 0.2 mm 3 mps 755 mmHg 96%
    21:00 +27°C° 0.2 mm 2 mps 756 mmHg 96%
    22:00 +27°C° 0.2 mm 2 mps 756 mmHg 96%
    23:00 +27°C° 0.3 mm 2 mps 756 mmHg 96%
    Show more